Regional Weather Roundup
Issued by NWS Bismarck, ND

Home | Current Version | Previous Version | Text Only | Print | Product List | Glossary On
Versions: 1 2 3 4 5 6 7 8 9 10 11 12 13 14 15 16 17 18 19 20 21 22 23 24 25 26 27 28 29 30 31 32 33 34 35 36 37 38 39 40 41 42 43 44 45 46 47 48 49 50
000
ASUS43 KBIS 140702
RWRBIS

NWR BROADCAST TEXT
NATIONAL WEATHER SERVICE BISMARCK ND
100 AM CST THU DEC 14 2017

NOTE: "FAIR" INDICATES FEW OR NO CLOUDS BELOW 12,000 FEET WITH NO
SIGNIFICANT WEATHER AND/OR OBSTRUCTIONS TO VISIBILITY.


CITY           SKY/WX    TMP DP  RH WIND       PRES   REMARKS
WILLISTON      CLOUDY    35  27  72 NW17G25   30.03R
MINOT          CLOUDY    32  27  81 W9        29.93F
MINOT AFB      CLOUDY    29  26  87 W6        29.93S
BISMARCK       FAIR      28  24  85 SW5       29.98F
DICKINSON      MOCLDY    34  27  75 NW17      29.97S
GARRISON         N/A     30  27  88 W10       29.95F
HETTINGER ARPT CLOUDY    35  26  69 NW17      30.01F
JAMESTOWN      CLOUDY    25  24  96 CALM      29.95F
CARRINGTON       N/A     27  25  93 CALM      29.97S
HAZEN          CLOUDY    28  27  93 SW9       29.99F WCI  20
LINTON           N/A     28  23  80 W9        30.00S WCI  20
MANDAN         PTSUNNY   25  23  93 W8        29.97F WCI  16
OAKES            N/A     23  23 100 CALM      29.98F
RUGBY          CLOUDY    27  27 100 S5        29.92F
STANLEY        CLOUDY    32  32 100 NW14G21   29.97R
TIOGA          CLOUDY    32  32 100 NW20      29.98R
WATFORD CITY   CLOUDY    34  30  86 W8        30.00S
$$

CITY           SKY/WX    TMP DP  RH WIND       PRES   REMARKS
GRAND FORKS    CLOUDY    17  13  84 NW6       30.00S WCI   9
GRAND FORKS AF CLOUDY    17  12  82 CALM      29.99F
DEVILS LAKE    CLOUDY    20  18  92 CALM      29.96F
FARGO          CLOUDY    19  14  81 N7        30.01F WCI  10
CANDO          CLOUDY    21  21 100 SE5       29.97S WCI  15
CAVALIER       CLOUDY    18  14  86 SW5       29.98F WCI  11
GRAFTON        CLOUDY    18  14  86 NW5       30.02R WCI  11
GWINNER          N/A     21  18  86 CALM      29.99S
LANGDON        CLOUDY    18  19 100 NW7       29.94S WCI   8
ROLLA          MIX PCPN  23  23 100 S8        29.92F WCI  14
WALHALLA       FAIR      18  19 100 W5        29.97F WCI  11
$$

CITY           SKY/WX    TMP DP  RH WIND       PRES   REMARKS
ABERDEEN       CLOUDY    27  27 100 CALM      29.99F
MOBRIDGE       PTCLDY    29  25  85 NW8       29.98S
BUFFALO          N/A     36  27  69 NW18      29.98F
RAPID CITY     CLOUDY    34  28  79 N16       30.08F
GLASGOW        CLEAR     30  25  81 NW14      30.14S WCI  19
SIDNEY         FLURRIES  35  29  78 NW20      30.05S
WOLF POINT     CLEAR     34  26  72 W7        30.11R
GLENDIVE       CLOUDY    33  30  88 NW16      30.07F
MILES CITY     MOCLDY    38  25  59 NW24G30   30.13F
BAKER          LGT SNOW  34  30  85 NW21G28   30.07S FOG
$$

CITY           SKY/WX    TMP DP  RH WIND       PRES   REMARKS
BILLINGS       PTCLDY    35  25  66 W20       30.25S
GREAT FALLS    CLOUDY    29  21  72 W7        30.39R
REGINA         FLURRIES  32  28  86 N14G21    30.05R
$$





USA.gov is the U.S. government's official web portal to all federal, state and local government web resources and services.